Vertical_Velocity
-1 -2 -0 0 0 -0 -1 -1 -0 -1 -1 -1 -2 -1 -1 0 0 -0 0 -0 -2 -0 -1 1 -0 -2 -0 -1 -2 1 -0 1 -0 -1 -1 -0 -3 -1 -1 -4 -1 -1 -2 -1 -2
-0 -1 -1 -1 -2 -1 1 -0 -1 -0 -1 1 -1 -1 -1 -1 -0 -1 0 -1 -1 0 -2 0 -0 -1 -0 -0 0 -0 1 0 0 0 -2 -2 -2 -3 0 -1 -4 1 -0 -1 -2
-0 -0 -1 -1 -0 -1 -2 -1 -1 -1 -1 -1 -2 -2 -2 -2 -0 -0 -1 0 -1 -1 -1 -0 -1 0 2 2 -2 2 0 0 2 0 2 -2 -2 -2 -1 0 -1 -2 3 0 -1
0 0 -1 -0 -1 -0 0 -0 -1 -0 -1 -1 -1 -1 -2 -1 -3 -2 -0 1 1 -1 -2 -1 -1 -2 -0 -1 1 0 2 2 -0 0 0 -1 -1 -2 -0 -2 -1 1 -2 1 -1
0 -0 -1 -1 -1 -0 -0 -1 -1 -1 -0 -1 -1 -2 -2 -1 -1 -1 0 1 1 1 1 0 -3 -3 1 -0 1 -1 2 -1 0 0 1 1 -1 -2 -3 0 -1 -1 -1 -2 0
0 1 0 -0 -1 -1 -2 -1 1 1 1 0 1 1 0 0 0 -1 -0 1 1 1 -1 1 -1 -2 0 -1 -0 1 -1 -1 -1 -0 1 5 -0 -1 -2 -2 -4 -0 -1 -3 -1
1 0 0 -1 -2 -1 -2 -1 -1 -1 -1 1 0 -0 -1 -1 0 1 1 -0 1 1 -0 -2 -1 -3 -0 -1 0 -1 -1 6 0 1 -3 -2 2 -1 -2 -2 1 -5 5 -2 -2
3 3 3 2 2 1 0 -1 -1 -2 -1 -1 -1 -1 -0 1 1 -0 0 -1 1 1 -1 -0 -0 -2 -1 -2 -3 0 8 0 -1 1 1 -2 -1 -1 -2 -2 -1 -0 -3 5 -2
1 1 0 1 0 1 1 -1 -1 -1 -1 -1 -1 -0 1 -1 -1 -0 0 -0 0 1 -1 -1 -0 1 -1 -1 -1 0 -5 -2 4 -0 2 -2 -2 2 -0 -2 -1 -3 1 -0 2
2 2 1 0 -1 -1 -1 -1 -0 -1 -1 -0 -0 -1 1 -1 -1 0 0 -0 2 -0 -1 -0 0 -0 -0 -6 -0 0 7 0 2 2 -2 1 -1 -3 2 1 -1 -3 -2 0 1
-1 0 -0 -0 -1 0 0 -0 0 -1 -0 -0 -0 -0 1 -0 -0 0 -0 -1 2 1 -3 1 1 -1 -2 -1 -2 0 -0 1 1 2 -0 -2 -1 1 -2 -2 0 -1 -2 -1 -1
-1 0 -0 -1 -0 -1 -1 -0 1 -0 -1 -1 -2 -1 -1 0 -1 -0 1 0 -1 0 2 -1 4 -1 -1 -3 -1 -1 2 -1 1 -4 2 2 -2 4 -2 1 1 -1 -1 -1 -1
-0 -1 -0 0 -0 0 1 -1 -1 -1 -0 -1 -1 -1 -1 -1 -0 -0 0 -0 -0 -2 -1 -0 5 -1 -2 -0 -2 -1 -1 -0 1 1 -0 -0 1 -1 -1 -2 2 1 -0 0 -1
-0 -1 -1 -0 -0 -2 1 1 1 -0 -0 1 0 2 0 -0 -1 -1 0 -1 -0 0 -1 -3 0 -1 -1 -1 1 -1 -0 -3 -0 0 -0 -1 3 1 -2 1 -1 -1 1 -1 -1
0 -0 1 0 -0 -1 -2 1 1 1 -1 -2 0 -1 1 -0 0 -1 -1 -1 -1 0 2 -0 -3 0 -1 4 -0 3 -4 -2 -1 -2 -3 1 -0 0 3 0 -2 -2 -3 -2 0
-2 0 -1 -1 -1 0 -0 -0 -1 0 1 1 -1 1 0 1 -1 -1 -1 -2 -1 0 1 -1 -1 1 1 1 1 1 -3 -0 -1 -3 -2 0 -3 -4 3 -1 3 -0 0 2 -1
-3 -2 -0 1 -2 -0 -1 -2 -3 -0 2 1 1 -1 -1 1 0 -1 -0 -1 -2 -1 0 -2 1 1 -0 -0 -2 2 3 -3 -9 -7 2 0 -3 -0 1 4 0 -1 2 0 2
-1 -2 -1 -0 -2 -1 -1 -1 1 -1 0 1 1 2 -2 0 1 1 -0 -0 -1 0 0 -2 0 -1 0 1 2 -3 1 1 -4 -6 4 1 -4 6 -0 1 2 3 -2 3 -1
-2 -1 -1 -2 -1 -1 -1 -0 -3 3 0 2 -1 1 -0 -1 1 -2 1 -1 -1 1 -1 -1 1 -2 -0 2 -0 -2 -6 4 -2 -5 -0 -2 1 1 1 0 2 1 12 3 -0
-3 -1 -1 -1 -0 -1 -1 1 -4 -1 -1 2 -1 0 2 -0 0 -4 -1 2 -3 0 -1 1 -0 -2 -0 1 -2 -2 2 -3 -3 -7 -5 -2 0 1 2 1 2 4 1 5 9
-1 -1 -1 1 -0 -1 1 -0 -5 -2 1 3 1 -1 -0 -0 3 1 -1 -3 -1 -1 -2 0 0 -1 -1 -0 1 -0 -3 -2 3 -3 -3 -0 -6 4 3 -3 -1 5 3 -2 -3
-2 -5 1 -3 -2 1 1 1 3 -1 1 -3 1 -0 0 -3 1 3 6 -0 -1 -3 -2 -3 -0 2 -0 -3 -1 -1 -3 -1 -3 -3 -1 -4 -3 4 1 4 2 4 -3 2 6
-2 -1 0 -1 -0 -1 -2 -3 -1 0 -0 1 -0 1 2 -1 -1 1 6 3 1 -2 -2 -1 -1 -1 -2 -3 -1 -3 1 0 -0 0 -4 1 -2 4 2 1 2 -2 -3 2 1
3 -0 2 -8 2 3 2 -1 -1 1 -2 -1 3 0 1 0 -2 -1 3 3 5 1 -1 -4 -3 -2 2 1 -3 -6 1 0 2 -2 3 -4 -7 3 3 -2 -1 0 2 -2 0
-1 -0 -3 -4 -2 3 3 3 3 -1 -1 -0 -1 1 -1 2 -1 -0 1 3 2 4 0 -4 -3 -3 -0 0 -2 -5 -0 1 -2 1 -5 -3 -2 -2 -1 1 -2 2 1 4 -1
-4 -3 2 2 -0 4 0 6 6 -1 1 3 2 4 1 4 -0 -2 -3 0 1 2 1 0 -2 -1 -3 -2 -2 -2 -2 -2 -1 2 -2 2 -2 -3 -0 -0 -0 -3 -1 1 -1
-4 -2 -6 11 3 -1 2 7 8 7 2 -2 -0 3 3 4 3 2 1 4 3 0 3 -2 2 3 1 -1 -5 -7 -0 0 -2 -0 -1 -0 1 -0 -2 1 0 -2 -3 1 -1
Height
5885 5886 5887 5889 5890 5891 5892 5893 5894 5894 5896 5896 5897 5898 5900 5901 5902 5902 5903 5906 5906 5906 5908 5909 5910 5909 5911 5913 5913 5913 5915 5916 5915 5914 5913 5913 5913 5908 5910 5909 5908 5908 5907 5908 5907
5886 5887 5888 5889 5890 5892 5893 5894 5895 5895 5896 5897 5898 5899 5900 5901 5902 5904 5905 5905 5907 5908 5909 5910 5911 5911 5912 5914 5916 5917 5917 5917 5917 5917 5916 5916 5915 5911 5912 5913 5912 5911 5910 5910 5909
5886 5887 5888 5889 5890 5891 5893 5894 5895 5896 5897 5898 5898 5900 5901 5902 5904 5905 5905 5906 5907 5908 5909 5911 5913 5913 5914 5915 5917 5918 5920 5920 5919 5919 5919 5919 5917 5915 5914 5916 5916 5914 5913 5913 5913
5886 5887 5888 5889 5890 5891 5892 5893 5894 5895 5896 5897 5898 5900 5901 5903 5905 5905 5906 5907 5907 5908 5910 5912 5912 5913 5913 5915 5916 5919 5921 5923 5920 5921 5921 5922 5921 5919 5918 5919 5918 5917 5916 5916 5915
5885 5886 5887 5888 5889 5889 5890 5891 5893 5894 5895 5896 5898 5899 5900 5903 5904 5904 5906 5907 5907 5908 5909 5911 5912 5912 5913 5915 5919 5920 5921 5923 5923 5923 5924 5923 5923 5922 5921 5921 5921 5920 5920 5918 5918
5887 5887 5887 5888 5888 5889 5889 5890 5891 5891 5892 5894 5895 5897 5899 5902 5902 5903 5905 5906 5907 5908 5909 5910 5912 5913 5914 5914 5918 5920 5922 5923 5922 5924 5924 5925 5925 5925 5924 5924 5923 5922 5923 5923 5922
5887 5887 5888 5888 5888 5889 5890 5890 5890 5891 5891 5892 5894 5895 5897 5900 5901 5902 5904 5905 5907 5908 5909 5909 5910 5912 5914 5914 5916 5918 5920 5922 5923 5925 5925 5925 5926 5926 5926 5927 5926 5926 5924 5926 5926
5889 5888 5888 5888 5888 5889 5889 5890 5890 5891 5891 5891 5892 5893 5895 5897 5899 5901 5903 5904 5906 5907 5908 5909 5910 5912 5913 5914 5915 5918 5918 5921 5924 5925 5926 5928 5928 5926 5927 5929 5929 5927 5928 5928 5929
5891 5891 5890 5890 5890 5890 5890 5890 5891 5891 5891 5891 5892 5892 5893 5894 5896 5898 5901 5904 5906 5907 5907 5908 5908 5910 5912 5914 5916 5917 5919 5922 5924 5926 5926 5928 5929 5929 5927 5928 5929 5929 5929 5930 5931
5893 5893 5892 5892 5891 5891 5891 5891 5891 5891 5891 5891 5890 5892 5892 5893 5894 5896 5898 5902 5905 5906 5906 5907 5908 5908 5909 5911 5914 5917 5919 5921 5922 5925 5926 5927 5929 5930 5931 5930 5930 5929 5930 5931 5932
5894 5893 5893 5892 5892 5892 5892 5892 5893 5893 5891 5892 5891 5890 5890 5891 5892 5894 5896 5899 5902 5904 5905 5906 5907 5907 5908 5909 5912 5913 5917 5920 5922 5923 5925 5926 5928 5929 5929 5930 5932 5931 5931 5931 5932
5894 5894 5893 5893 5892 5892 5892 5892 5892 5892 5891 5891 5891 5890 5890 5890 5890 5892 5893 5896 5897 5901 5903 5905 5905 5905 5907 5909 5910 5913 5914 5917 5919 5921 5923 5924 5926 5928 5928 5928 5930 5930 5930 5931 5931
5893 5892 5893 5892 5891 5891 5891 5892 5891 5891 5891 5891 5890 5890 5890 5890 5889 5890 5891 5892 5893 5896 5899 5902 5903 5903 5905 5906 5909 5910 5913 5913 5916 5918 5921 5923 5925 5925 5927 5927 5927 5927 5929 5929 5930
5892 5891 5890 5891 5892 5889 5890 5890 5890 5890 5890 5890 5889 5889 5889 5888 5888 5888 5889 5890 5890 5891 5894 5898 5899 5900 5903 5905 5907 5908 5909 5910 5912 5914 5915 5918 5923 5922 5924 5924 5923 5923 5926 5927 5928
5890 5889 5888 5888 5888 5887 5888 5887 5887 5887 5888 5888 5886 5886 5886 5887 5887 5886 5887 5887 5887 5888 5891 5895 5894 5896 5901 5903 5903 5905 5907 5908 5910 5910 5912 5914 5917 5917 5921 5920 5921 5920 5921 5922 5924
5886 5885 5885 5885 5884 5884 5884 5884 5885 5886 5883 5884 5884 5883 5883 5884 5884 5884 5884 5884 5885 5886 5887 5889 5890 5892 5896 5898 5899 5901 5903 5905 5905 5906 5910 5910 5912 5913 5913 5917 5918 5919 5921 5922 5922
5882 5881 5880 5880 5880 5879 5879 5880 5881 5880 5880 5880 5880 5879 5880 5880 5880 5880 5881 5881 5882 5883 5884 5884 5886 5887 5889 5892 5894 5897 5899 5899 5901 5903 5906 5908 5908 5910 5910 5913 5916 5916 5918 5920 5921
5875 5874 5874 5874 5874 5873 5874 5874 5874 5874 5874 5874 5874 5874 5875 5875 5875 5875 5876 5877 5877 5878 5879 5880 5880 5882 5884 5886 5889 5890 5894 5894 5896 5899 5901 5902 5906 5909 5908 5910 5913 5914 5915 5917 5917
5867 5867 5866 5866 5866 5866 5867 5866 5867 5867 5868 5868 5867 5868 5869 5869 5870 5870 5871 5871 5872 5873 5874 5874 5875 5876 5879 5879 5882 5884 5886 5891 5890 5892 5894 5896 5901 5905 5906 5907 5909 5911 5913 5913 5913
5857 5858 5857 5857 5857 5857 5857 5858 5856 5858 5860 5861 5861 5861 5861 5861 5863 5863 5864 5866 5866 5867 5868 5868 5869 5870 5872 5873 5875 5877 5882 5882 5883 5884 5888 5891 5894 5899 5902 5904 5905 5907 5908 5908 5909
5848 5847 5847 5847 5847 5847 5847 5847 5846 5847 5849 5852 5853 5853 5853 5853 5854 5855 5857 5857 5858 5860 5861 5862 5863 5865 5866 5867 5868 5870 5873 5875 5878 5879 5881 5885 5889 5892 5896 5899 5901 5901 5903 5904 5904
5836 5836 5836 5836 5837 5837 5837 5837 5837 5836 5837 5838 5841 5843 5844 5844 5845 5846 5849 5849 5850 5851 5853 5854 5856 5856 5858 5860 5861 5862 5864 5868 5869 5873 5874 5877 5883 5884 5889 5894 5896 5897 5897 5900 5902
5821 5822 5821 5822 5823 5824 5825 5825 5825 5826 5826 5826 5828 5830 5832 5833 5836 5837 5840 5841 5842 5843 5844 5846 5848 5849 5849 5853 5854 5855 5857 5860 5862 5865 5865 5869 5877 5879 5881 5885 5888 5890 5892 5895 5897
5805 5804 5805 5805 5806 5808 5809 5809 5810 5813 5814 5814 5815 5816 5819 5821 5822 5825 5828 5831 5832 5834 5835 5836 5838 5842 5844 5846 5847 5848 5850 5852 5854 5854 5859 5860 5868 5871 5872 5873 5878 5880 5884 5887 5890
5782 5783 5784 5786 5786 5788 5790 5792 5794 5796 5798 5799 5801 5802 5805 5807 5809 5811 5815 5817 5820 5822 5825 5826 5827 5831 5836 5837 5837 5839 5841 5842 5844 5847 5848 5853 5856 5862 5863 5864 5868 5872 5874 5879 5882
5764 5764 5765 5766 5765 5766 5768 5773 5775 5777 5779 5783 5785 5787 5789 5793 5796 5796 5798 5801 5806 5810 5812 5813 5816 5820 5823 5827 5828 5829 5830 5832 5835 5838 5840 5843 5846 5853 5854 5856 5857 5861 5864 5868 5871
5743 5743 5744 5747 5747 5747 5749 5751 5755 5757 5760 5762 5767 5770 5773 5777 5780 5783 5786 5789 5791 5795 5799 5802 5804 5807 5809 5816 5817 5815 5820 5823 5826 5828 5831 5834 5838 5842 5845 5847 5849 5851 5855 5858 5860